#timestamp,LO_Frequency,Hit,StdDev 
1650841215.2,286047001.0,N
1650841235.0,286047000.2,N
1650841235.9,286047000.2,N
1650841255.7,286047000.6,N
1650841275.7,286046998.6,N
1650841295.5,286046998.1,N
1650841315.3,286046998.9,N
1650841335.2,286046999.3,N
1650841355.0,286047000.6,N
1650841355.9,286047000.6,N
1650841375.7,286047001.2,N
1650841395.6,286046998.6,N
1650841415.4,286046999.3,N
1650841435.3,286047000.1,N
1650841455.1,286047000.8,N
1650841475.8,286047001.2,N
1650841495.7,286046998.7,N
1650841515.5,286046998.7,N
1650841535.4,286046998.7,N
1650841555.2,286046998.7,N
1650841575.0,286046999.0,N
1650841575.9,286046999.0,N
1650841595.8,286046998.4,N
1650841615.6,286046999.3,N
1650841635.4,286046999.5,N
1650841655.3,286046998.3,N
1650841675.1,286046999.2,N
1650841695.9,286046999.5,N
1650841715.7,286046999.5,N
1650841735.5,286046999.0,N
1650841755.4,286046998.9,N
1650841775.2,286046999.4,N
1650841795.0,286046999.4,N
1650841796.0,286046999.4,N
1650841815.8,286046998.5,N
1650841835.6,286046998.1,N
1650841855.5,286047000.8,N
1650841875.3,286046998.9,N
1650841895.1,286046998.6,N
1650841915.9,286046999.9,N
1650841935.7,286047001.1,N
1650841955.6,286046999.0,N
1650841975.4,286046998.7,N
1650841995.2,286047001.2,N
1650842015.1,286047000.5,N
1650842016.0,286047000.5,N
1650842035.8,286047001.1,N
1650842055.7,286046998.4,N
1650842075.5,286046999.1,N
1650842095.3,286046999.0,N
1650842115.2,286046997.0,Y
1650842135.0,286046998.4,P
1650842135.9,286046998.4,P
1650842155.8,286047001.2,N
1650842175.6,286047000.7,N
1650842195.4,286047001.2,N
1650842215.3,286047000.5,N
1650842235.1,286047002.4,N
1650842255.9,286046999.7,N
1650842275.7,286047000.2,N
1650842295.5,286047002.8,N
1650842315.4,286047002.4,N
1650842335.2,286047001.0,N
1650842355.0,286047000.8,N
1650842355.9,286047000.8,N
1650842375.8,286047002.7,N
1650842395.6,286047000.4,N
1650842415.5,286047001.2,N
1650842435.3,286047000.5,N
1650842455.1,286047000.3,N
1650842475.9,286046998.6,N
1650842495.7,286046999.1,N
1650842515.5,286046998.2,N
1650842535.4,286047000.5,N
1650842555.2,286047000.5,N
1650842575.0,286047000.6,N
1650842576.0,286047000.6,N
1650842595.8,286047001.8,N
1650842615.6,286047002.6,N
1650842635.5,286047002.8,N
1650842655.3,286047002.3,N
1650842675.1,286047002.0,N
1650842695.9,286047004.1,Y
1650842715.7,286047001.5,P
1650842735.6,286047001.7,P
1650842755.4,286047002.1,P
1650842775.2,286047001.9,Y
1650842795.1,286047001.1,P
1650842796.0,286047001.1,P
1650842815.8,286047001.2,P
1650842835.7,286047000.3,N
1650842855.5,286047002.4,Y
1650842875.3,286046998.2,P
1650842895.2,286046998.4,N
1650842915.0,286046999.6,N
1650842915.9,286046999.6,N
1650842935.7,286046996.9,Y
1650842955.6,286046999.4,P
1650842975.4,286046998.3,P
1650842995.3,286046998.2,P
1650843015.1,286047001.1,N
1650843035.8,286047000.5,N
1650843055.7,286047001.0,N
1650843075.5,286046998.3,N
1650843095.4,286046999.2,N
1650843115.2,286046999.1,N
1650843135.0,286046996.5,Y
1650843135.9,286046996.5,P
1650843155.8,286046999.2,N
1650843175.6,286046996.9,N
1650843195.5,286046999.6,N
1650843215.3,286046999.2,N
1650843235.1,286046999.0,N
1650843255.9,286046998.9,N
1650843275.7,286046999.1,N
1650843295.5,286046996.7,Y
1650843315.4,286046999.6,P
1650843335.2,286046999.1,N
1650843355.1,286046997.7,P
1650843356.0,286046997.7,Y
1650843375.8,286046999.3,P
1650843395.6,286046996.8,P
1650843415.5,286046998.9,N
1650843435.3,286046998.7,N
1650843455.2,286046998.7,N
1650843475.9,286046998.8,N
1650843495.7,286046998.6,N
1650843515.6,286046999.5,N
1650843535.4,286046999.4,N
1650843555.3,286046999.4,N
1650843575.1,286046998.7,N
1650843595.8,286046996.9,Y
1650843615.7,286046997.3,P
1650843635.5,286046997.8,N
1650843655.4,286046995.9,P
1650843675.2,286046995.4,Y
1650843695.0,286046996.5,P
1650843695.9,286046996.5,P
1650843715.8,286046997.8,P
1650843735.6,286046995.0,Y
1650843755.5,286046998.6,P
1650843775.3,286046999.8,N
1650843795.1,286047002.8,N
1650843815.9,286047001.2,N
1650843835.7,286047001.2,N
1650843855.5,286047000.7,N
1650843875.4,286046998.6,N
1650843895.2,286046999.9,N
1650843915.1,286047000.5,N
1650843916.0,286047000.5,N
1650843935.8,286047000.9,N
1650843955.6,286047001.0,N
1650843975.5,286047001.2,N
1650843995.3,286046998.1,N
1650844015.1,286046998.6,N
1650844035.9,286046998.3,N
1650844055.7,286046998.1,N
1650844075.6,286046998.1,N
1650844095.4,286046999.0,N
1650844115.2,286046999.6,N
1650844135.1,286046999.4,N
1650844136.0,286046999.4,N
1650844155.8,286046998.5,N
1650844175.6,286046998.5,N
1650844195.5,286046998.8,N
1650844215.3,286047000.8,N
1650844235.2,286046998.2,N
1650844255.0,286046998.1,N
1650844255.9,286046998.1,N
1650844275.7,286047001.0,N
1650844295.6,286046999.8,N
1650844315.4,286047000.6,N
1650844335.3,286047000.9,N
1650844355.1,286047000.2,N
1650844375.8,286047000.3,N
1650844395.7,286047000.5,N
1650844415.5,286047000.4,N
1650844435.3,286047000.7,N
1650844455.2,286047000.6,N
1650844475.0,286047001.2,N
1650844475.9,286047001.2,N
1650844495.8,286046998.3,N
1650844515.6,286046999.1,N
1650844535.4,286046999.3,N
1650844555.3,286046999.2,N
1650844575.1,286046997.0,N
1650844595.9,286046996.6,Y
1650844615.7,286046996.5,P
1650844635.5,286046999.3,N
1650844655.4,286046997.0,N
1650844675.2,286046998.4,N
1650844695.1,286046999.1,N
1650844696.0,286046999.1,N
1650844715.8,286046998.7,N
1650844735.6,286046996.9,Y
1650844755.5,286046998.4,P
1650844775.3,286046996.9,P
1650844795.1,286046996.9,P
